| time (UTC) | temp F | wind direction | speed MPH | gust MPH | rain 1hr in | rain 24hr in | rain mn in | humidity % | barometer mb |
| 20260905102006 | 69 | 275 | 0.0 | 0.0 | 0.00 | 0.06 | 0.01 | 96 | 1012.0 |
| 20260905101504 | 69 | 275 | 0.0 | 0.0 | 0.00 | 0.06 | 0.01 | 96 | 1011.9 |
| 20260905101005 | 69 | 275 | 0.0 | 0.0 | 0.00 | 0.06 | 0.01 | 96 | 1011.9 |
| 20260905100506 | 69 | 275 | 0.0 | 0.0 | 0.00 | 0.06 | 0.01 | 96 | 1011.9 |
| 20260905100006 | 69 | 275 | 0.0 | 0.0 | 0.00 | 0.06 | 0.01 | 96 | 1011.9 |
| 20260905095504 | 69 | 275 | 0.0 | 0.0 | 0.00 | 0.06 | 0.01 | 97 | 1011.9 |
| 20260905095006 | 69 | 275 | 0.0 | 0.0 | 0.00 | 0.06 | 0.01 | 96 | 1011.8 |
| 20260905094504 | 69 | 275 | 0.0 | 0.0 | 0.00 | 0.06 | 0.01 | 96 | 1011.9 |
| 20260905094006 | 69 | 275 | 0.0 | 0.0 | 0.00 | 0.06 | 0.01 | 96 | 1011.8 |
| 20260905093505 | 69 | 276 | 0.0 | 0.0 | 0.00 | 0.06 | 0.01 | 96 | 1011.7 |
| 20260905093007 | 69 | 275 | 0.0 | 0.0 | 0.00 | 0.06 | 0.01 | 96 | 1011.8 |
| 20260905092006 | 69 | 275 | 0.0 | 2.0 | 0.00 | 0.06 | 0.01 | 96 | 1011.8 |
| 20260905091507 | 69 | 276 | 1.0 | 2.0 | 0.00 | 0.06 | 0.01 | 96 | 1011.9 |
| 20260905091008 | 70 | 276 | 0.0 | 1.0 | 0.00 | 0.06 | 0.01 | 96 | 1011.9 |
| 20260905090509 | 70 | 276 | 0.0 | 0.0 | 0.00 | 0.06 | 0.01 | 96 | 1011.8 |
| 20260905090005 | 70 | 276 | 0.0 | 0.0 | 0.00 | 0.06 | 0.01 | 96 | 1011.9 |
| 20260905085504 | 70 | 276 | 0.0 | 0.0 | 0.00 | 0.06 | 0.01 | 96 | 1011.9 |
| 20260905085008 | 70 | 276 | 0.0 | 0.0 | 0.00 | 0.06 | 0.01 | 96 | 1011.8 |
| 20260905084504 | 70 | 276 | 0.0 | 0.0 | 0.00 | 0.06 | 0.01 | 96 | 1011.8 |
| 20260905084006 | 70 | 276 | 0.0 | 0.0 | 0.00 | 0.06 | 0.01 | 96 | 1011.7 |
| 20260905083505 | 70 | 276 | 0.0 | 0.0 | 0.00 | 0.06 | 0.01 | 96 | 1011.6 |
| 20260905082504 | 70 | 276 | 0.0 | 0.0 | 0.00 | 0.06 | 0.01 | 96 | 1011.6 |
| 20260905082006 | 70 | 276 | 0.0 | 0.0 | 0.00 | 0.06 | 0.01 | 96 | 1011.7 |
| 20260905081504 | 70 | 276 | 0.0 | 0.0 | 0.00 | 0.06 | 0.01 | 96 | 1011.8 |
| 20260905081004 | 70 | 276 | 0.0 | 0.0 | 0.00 | 0.06 | 0.01 | 96 | 1011.8 |
| 20260905080505 | 70 | 276 | 0.0 | 0.0 | 0.00 | 0.06 | 0.01 | 96 | 1011.8 |
| 20260905080005 | 70 | 276 | 0.0 | 0.0 | 0.00 | 0.06 | 0.01 | 96 | 1011.8 |
| 20260905075504 | 70 | 276 | 0.0 | 0.0 | 0.00 | 0.06 | 0.01 | 96 | 1011.7 |
| 20260905075006 | 70 | 276 | 0.0 | 0.0 | 0.00 | 0.06 | 0.01 | 96 | 1011.8 |
| 20260905074504 | 70 | 276 | 0.0 | 0.0 | 0.00 | 0.06 | 0.01 | 96 | 1011.8 |
| 20260905074006 | 70 | 276 | 0.0 | 0.0 | 0.00 | 0.06 | 0.01 | 96 | 1011.8 |
| 20260905073509 | 70 | 276 | 0.0 | 0.0 | 0.00 | 0.06 | 0.01 | 96 | 1011.8 |
| 20260905073005 | 70 | 276 | 0.0 | 0.0 | 0.00 | 0.06 | 0.01 | 96 | 1011.7 |
| 20260905072504 | 70 | 276 | 0.0 | 0.0 | 0.00 | 0.06 | 0.01 | 96 | 1011.7 |
| 20260905072010 | 70 | 276 | 0.0 | 0.0 | 0.00 | 0.06 | 0.01 | 96 | 1011.8 |
| 20260905071504 | 70 | 276 | 0.0 | 0.0 | 0.00 | 0.06 | 0.01 | 96 | 1011.7 |
| 20260905071006 | 70 | 276 | 0.0 | 0.0 | 0.00 | 0.06 | 0.01 | 96 | 1011.8 |
| 20260905070505 | 70 | 276 | 0.0 | 0.0 | 0.00 | 0.06 | 0.01 | 96 | 1011.9 |
| 20260905065504 | 71 | 276 | 0.0 | 0.0 | 0.00 | 0.06 | 0.01 | 95 | 1011.9 |
| 20260905064504 | 71 | 276 | 0.0 | 0.0 | 0.00 | 0.06 | 0.01 | 95 | 1011.9 |
| 20260905064005 | 71 | 276 | 0.0 | 0.0 | 0.00 | 0.06 | 0.01 | 95 | 1011.9 |
| 20260905063506 | 71 | 276 | 0.0 | 0.0 | 0.00 | 0.06 | 0.01 | 95 | 1011.9 |
| 20260905063006 | 71 | 276 | 0.0 | 0.0 | 0.00 | 0.06 | 0.01 | 95 | 1012.0 |
| 20260905062503 | 71 | 276 | 0.0 | 0.0 | 0.00 | 0.06 | 0.01 | 95 | 1012.0 |
| 20260905062006 | 71 | 276 | 0.0 | 0.0 | 0.00 | 0.06 | 0.01 | 95 | 1012.1 |
| 20260905061504 | 71 | 276 | 0.0 | 0.0 | 0.00 | 0.06 | 0.01 | 95 | 1012.1 |
| 20260905060505 | 71 | 276 | 0.0 | 0.0 | 0.00 | 0.06 | 0.01 | 95 | 1012.3 |
| 20260905060005 | 71 | 276 | 0.0 | 0.0 | 0.00 | 0.07 | 0.01 | 95 | 1012.3 |
| 20260905055504 | 71 | 276 | 0.0 | 0.0 | 0.00 | 0.07 | 0.01 | 95 | 1012.3 |
| 20260905055006 | 71 | 276 | 0.0 | 0.0 | 0.00 | 0.07 | 0.01 | 95 | 1012.3 |
| 20260905054504 | 72 | 276 | 0.0 | 0.0 | 0.00 | 0.07 | 0.01 | 95 | 1012.3 |
| 20260905054006 | 72 | 276 | 0.0 | 0.0 | 0.00 | 0.07 | 0.01 | 95 | 1012.4 |
| 20260905053005 | 72 | 276 | 0.0 | 0.0 | 0.00 | 0.07 | 0.01 | 95 | 1012.4 |
| 20260905052504 | 72 | 276 | 0.0 | 0.0 | 0.00 | 0.07 | 0.01 | 95 | 1012.4 |
| 20260905052006 | 72 | 276 | 0.0 | 0.0 | 0.01 | 0.07 | 0.01 | 94 | 1012.4 |
| 20260905051005 | 72 | 276 | 0.0 | 0.0 | 0.01 | 0.07 | 0.01 | 95 | 1012.4 |
| 20260905050505 | 73 | 276 | 0.0 | 0.0 | 0.01 | 0.07 | 0.01 | 94 | 1012.5 |
| 20260905050006 | 73 | 276 | 0.0 | 0.0 | 0.01 | 0.14 | 0.01 | 94 | 1012.5 |
| 20260905045008 | 73 | 276 | 0.0 | 0.0 | 0.01 | 0.14 | 0.01 | 94 | 1012.6 |
| 20260905044506 | 73 | 276 | 0.0 | 0.0 | 0.01 | 0.14 | 0.01 | 94 | 1012.6 |
| 20260905044007 | 73 | 276 | 0.0 | 3.0 | 0.01 | 0.14 | 0.01 | 94 | 1012.8 |
| 20260905043506 | 74 | 276 | 0.0 | 3.0 | 0.01 | 0.14 | 0.01 | 94 | 1013.0 |
| 20260905043010 | 74 | 333 | 0.0 | 3.0 | 0.01 | 0.14 | 0.01 | 95 | 1013.0 |
| 20260905042506 | 74 | 333 | 0.0 | 3.0 | 0.01 | 0.14 | 0.01 | 95 | 1013.0 |
| 20260905041507 | 75 | 301 | 0.0 | 1.0 | 0.04 | 0.13 | 0.00 | 95 | 1012.9 |
| 20260905041008 | 75 | 301 | 0.0 | 0.0 | 0.05 | 0.13 | 0.00 | 95 | 1013.0 |
| 20260905040506 | 75 | 301 | 0.0 | 0.0 | 0.05 | 0.13 | 0.00 | 95 | 1013.0 |
| 20260905040011 | 75 | 301 | 0.0 | 0.0 | 0.05 | 0.13 | 0.00 | 95 | 1013.0 |
| 20260905035506 | 75 | 301 | 0.0 | 0.0 | 0.05 | 0.15 | 0.13 | 95 | 1012.8 |
| 20260905035006 | 75 | 301 | 0.0 | 0.0 | 0.05 | 0.15 | 0.13 | 95 | 1012.8 |
| 20260905034508 | 75 | 301 | 0.0 | 0.0 | 0.05 | 0.15 | 0.13 | 94 | 1012.8 |
| 20260905034011 | 75 | 301 | 0.0 | 0.0 | 0.05 | 0.15 | 0.13 | 94 | 1012.7 |
| 20260905033505 | 75 | 301 | 0.0 | 0.0 | 0.05 | 0.15 | 0.13 | 94 | 1012.7 |
| 20260905033008 | 75 | 301 | 0.0 | 1.0 | 0.05 | 0.15 | 0.13 | 94 | 1012.8 |
| 20260905032506 | 75 | 301 | 0.0 | 0.0 | 0.05 | 0.15 | 0.13 | 94 | 1012.8 |
| 20260905032007 | 75 | 301 | 0.0 | 1.0 | 0.03 | 0.13 | 0.11 | 94 | 1012.8 |
| 20260905031506 | 75 | 301 | 0.0 | 1.0 | 0.01 | 0.11 | 0.09 | 94 | 1012.8 |
| 20260905031009 | 75 | 301 | 0.0 | 1.0 | 0.00 | 0.10 | 0.08 | 94 | 1012.7 |
| 20260905030506 | 75 | 301 | 0.0 | 0.0 | 0.00 | 0.10 | 0.08 | 94 | 1012.6 |
| 20260905025510 | 75 | 301 | 0.0 | 0.0 | 0.00 | 0.10 | 0.08 | 94 | 1012.6 |
| 20260905025008 | 75 | 301 | 0.0 | 0.0 | 0.00 | 0.10 | 0.08 | 94 | 1012.6 |
| 20260905024506 | 75 | 301 | 0.0 | 0.0 | 0.00 | 0.10 | 0.08 | 94 | 1012.7 |
| 20260905024006 | 75 | 301 | 0.0 | 0.0 | 0.00 | 0.10 | 0.08 | 93 | 1012.6 |
| 20260905023504 | 75 | 301 | 0.0 | 0.0 | 0.00 | 0.10 | 0.08 | 93 | 1012.5 |
| 20260905023009 | 75 | 301 | 0.0 | 0.0 | 0.00 | 0.10 | 0.08 | 93 | 1012.6 |
| 20260905022505 | 75 | 301 | 0.0 | 0.0 | 0.00 | 0.10 | 0.08 | 93 | 1012.5 |
| 20260905021507 | 75 | 301 | 0.0 | 0.0 | 0.00 | 0.10 | 0.08 | 93 | 1012.6 |
| 20260905020008 | 75 | 301 | 0.0 | 0.0 | 0.00 | 0.10 | 0.08 | 92 | 1012.6 |
| 20260905015507 | 75 | 301 | 0.0 | 0.0 | 0.00 | 0.10 | 0.08 | 92 | 1012.6 |
| 20260905014506 | 76 | 301 | 0.0 | 0.0 | 0.00 | 0.10 | 0.08 | 92 | 1012.5 |
| 20260905014006 | 76 | 302 | 0.0 | 0.0 | 0.00 | 0.10 | 0.08 | 92 | 1012.5 |
| 20260905013505 | 76 | 301 | 0.0 | 0.0 | 0.00 | 0.10 | 0.08 | 91 | 1012.5 |
| 20260905013007 | 76 | 302 | 0.0 | 0.0 | 0.00 | 0.10 | 0.08 | 92 | 1012.5 |
| 20260905012506 | 76 | 302 | 0.0 | 0.0 | 0.00 | 0.10 | 0.08 | 91 | 1012.5 |
| 20260905012006 | 76 | 302 | 0.0 | 0.0 | 0.00 | 0.10 | 0.08 | 91 | 1012.6 |
| 20260905011506 | 76 | 302 | 0.0 | 0.0 | 0.00 | 0.10 | 0.08 | 91 | 1012.6 |
| 20260905011005 | 76 | 302 | 0.0 | 0.0 | 0.00 | 0.10 | 0.08 | 91 | 1012.6 |
| 20260905010506 | 76 | 302 | 0.0 | 0.0 | 0.00 | 0.10 | 0.08 | 90 | 1012.6 |
| 20260905010009 | 76 | 302 | 0.0 | 0.0 | 0.00 | 0.10 | 0.08 | 90 | 1012.7 |
| 20260905005007 | 76 | 302 | 0.0 | 0.0 | 0.00 | 0.10 | 0.08 | 89 | 1012.5 |
| 20260905004505 | 76 | 302 | 0.0 | 0.0 | 0.00 | 0.10 | 0.08 | 89 | 1012.5 |
| 20260905004009 | 77 | 302 | 0.0 | 0.0 | 0.00 | 0.10 | 0.08 | 89 | 1012.6 |
| 20260905003505 | 77 | 302 | 0.0 | 0.0 | 0.00 | 0.10 | 0.08 | 89 | 1012.6 |
| 20260905003010 | 77 | 302 | 0.0 | 0.0 | 0.00 | 0.10 | 0.08 | 89 | 1012.5 |
| 20260905002505 | 77 | 302 | 0.0 | 0.0 | 0.00 | 0.10 | 0.08 | 89 | 1012.5 |
| 20260905002005 | 77 | 302 | 0.0 | 0.0 | 0.00 | 0.10 | 0.08 | 89 | 1012.4 |
| 20260905001506 | 77 | 302 | 0.0 | 0.0 | 0.00 | 0.10 | 0.08 | 89 | 1012.3 |
| 20260905001007 | 77 | 302 | 0.0 | 0.0 | 0.00 | 0.10 | 0.08 | 89 | 1012.2 |
| 20260905000007 | 77 | 302 | 0.0 | 0.0 | 0.00 | 0.10 | 0.08 | 89 | 1012.2 |
| 20260904235507 | 77 | 302 | 0.0 | 0.0 | 0.00 | 0.10 | 0.08 | 89 | 1012.2 |
| 20260904235005 | 77 | 302 | 0.0 | 0.0 | 0.00 | 0.10 | 0.08 | 89 | 1012.2 |
| 20260904233006 | 77 | 302 | 0.0 | 0.0 | 0.00 | 0.10 | 0.08 | 88 | 1012.2 |
| 20260904232505 | 77 | 302 | 0.0 | 0.0 | 0.00 | 0.10 | 0.08 | 88 | 1012.1 |
| 20260904231505 | 77 | 302 | 0.0 | 0.0 | 0.00 | 0.10 | 0.08 | 88 | 1012.1 |
| 20260904231006 | 78 | 302 | 0.0 | 0.0 | 0.00 | 0.10 | 0.08 | 87 | 1012.1 |
| 20260904230505 | 78 | 302 | 0.0 | 0.0 | 0.00 | 0.10 | 0.08 | 87 | 1012.3 |
| 20260904230008 | 78 | 302 | 0.0 | 0.0 | 0.00 | 0.10 | 0.08 | 86 | 1012.4 |
| 20260904225006 | 79 | 302 | 0.0 | 0.0 | 0.00 | 0.10 | 0.08 | 85 | 1012.4 |
| 20260904224506 | 80 | 302 | 0.0 | 0.0 | 0.00 | 0.10 | 0.08 | 83 | 1012.5 |
| 20260904224005 | 80 | 302 | 0.0 | 0.0 | 0.00 | 0.10 | 0.08 | 82 | 1012.4 |
| 20260904223007 | 80 | 302 | 0.0 | 3.0 | 0.00 | 0.10 | 0.08 | 82 | 1012.3 |
| 20260904222504 | 81 | 302 | 0.0 | 3.0 | 0.00 | 0.10 | 0.08 | 80 | 1012.4 |
| 20260904222006 | 80 | 302 | 0.0 | 3.0 | 0.00 | 0.10 | 0.08 | 80 | 1012.4 |
| 20260904221506 | 80 | 302 | 0.0 | 3.0 | 0.00 | 0.10 | 0.08 | 80 | 1012.3 |
| 20260904221005 | 80 | 301 | 0.0 | 1.0 | 0.00 | 0.10 | 0.08 | 80 | 1012.4 |
| 20260904220505 | 81 | 301 | 0.0 | 3.0 | 0.00 | 0.10 | 0.08 | 79 | 1012.4 |
| 20260904220010 | 82 | 301 | 0.0 | 3.0 | 0.00 | 0.10 | 0.08 | 76 | 1012.5 |
| 20260904215008 | 81 | 288 | 0.0 | 1.0 | 0.00 | 0.10 | 0.08 | 77 | 1012.6 |
| 20260904214006 | 81 | 288 | 0.0 | 1.0 | 0.00 | 0.10 | 0.08 | 78 | 1012.7 |
| 20260904213505 | 81 | 288 | 0.0 | 0.0 | 0.00 | 0.10 | 0.08 | 79 | 1012.8 |
| 20260904213006 | 82 | 288 | 0.0 | 2.0 | 0.00 | 0.10 | 0.08 | 78 | 1013.0 |
| 20260904212505 | 82 | 288 | 1.0 | 2.0 | 0.00 | 0.10 | 0.08 | 74 | 1013.0 |
| 20260904212006 | 82 | 288 | 1.0 | 3.0 | 0.00 | 0.10 | 0.08 | 76 | 1012.8 |
| 20260904211506 | 83 | 333 | 0.0 | 4.0 | 0.00 | 0.10 | 0.08 | 73 | 1012.9 |
| 20260904211006 | 83 | 305 | 1.0 | 5.0 | 0.00 | 0.10 | 0.08 | 73 | 1012.8 |
| 20260904210506 | 83 | 328 | 0.0 | 4.0 | 0.00 | 0.10 | 0.08 | 73 | 1012.8 |
| 20260904210011 | 84 | 323 | 1.0 | 7.0 | 0.00 | 0.10 | 0.08 | 71 | 1012.6 |
| 20260904205505 | 84 | 305 | 1.0 | 7.0 | 0.00 | 0.10 | 0.08 | 71 | 1012.5 |
| 20260904205006 | 84 | 319 | 0.0 | 4.0 | 0.00 | 0.10 | 0.08 | 70 | 1012.5 |
| 20260904203505 | 85 | 274 | 2.0 | 6.0 | 0.00 | 0.10 | 0.08 | 68 | 1012.3 |
| 20260904203007 | 85 | 161 | 2.0 | 8.0 | 0.00 | 0.10 | 0.08 | 67 | 1012.3 |
| 20260904202505 | 86 | 227 | 4.0 | 8.0 | 0.00 | 0.10 | 0.08 | 68 | 1012.4 |
| 20260904200504 | 86 | 306 | 5.0 | 10.0 | 0.00 | 0.10 | 0.08 | 66 | 1012.9 |
| 20260904200007 | 86 | 260 | 3.0 | 6.0 | 0.00 | 0.10 | 0.08 | 68 | 1012.9 |
| 20260904195504 | 86 | 311 | 2.0 | 6.0 | 0.00 | 0.10 | 0.08 | 68 | 1012.9 |
| 20260904195006 | 86 | 281 | 1.0 | 9.0 | 0.00 | 0.10 | 0.08 | 70 | 1012.9 |
| 20260904194506 | 86 | 311 | 1.0 | 9.0 | 0.00 | 0.10 | 0.08 | 70 | 1012.9 |
| 20260904194006 | 85 | 306 | 3.0 | 9.0 | 0.00 | 0.10 | 0.08 | 68 | 1013.0 |
| 20260904193505 | 86 | 360 | 2.0 | 5.0 | 0.00 | 0.10 | 0.08 | 70 | 1013.2 |
| 20260904193010 | 85 | 346 | 1.0 | 5.0 | 0.00 | 0.10 | 0.08 | 69 | 1013.1 |
| 20260904192504 | 85 | 295 | 2.0 | 10.0 | 0.00 | 0.10 | 0.08 | 68 | 1013.3 |
| 20260904192006 | 86 | 27 | 4.0 | 10.0 | 0.00 | 0.10 | 0.08 | 66 | 1013.5 |
| 20260904191506 | 86 | 290 | 2.0 | 7.0 | 0.00 | 0.10 | 0.08 | 70 | 1013.4 |
| 20260904191006 | 86 | 320 | 3.0 | 7.0 | 0.00 | 0.10 | 0.08 | 68 | 1013.4 |
| 20260904190504 | 85 | 311 | 1.0 | 7.0 | 0.00 | 0.10 | 0.08 | 73 | 1013.5 |
| 20260904190007 | 84 | 265 | 3.0 | 6.0 | 0.00 | 0.10 | 0.08 | 71 | 1013.5 |
| 20260904185505 | 83 | 258 | 1.0 | 5.0 | 0.00 | 0.10 | 0.08 | 75 | 1013.6 |
| 20260904184506 | 85 | 303 | 1.0 | 8.0 | 0.00 | 0.10 | 0.08 | 69 | 1013.8 |
| 20260904183505 | 86 | 292 | 1.0 | 5.0 | 0.00 | 0.10 | 0.08 | 72 | 1013.8 |
| 20260904183007 | 85 | 299 | 0.0 | 9.0 | 0.00 | 0.10 | 0.08 | 70 | 1013.9 |
| 20260904182507 | 86 | 299 | 3.0 | 9.0 | 0.00 | 0.10 | 0.08 | 68 | 1013.9 |
| 20260904182005 | 85 | 256 | 2.0 | 5.0 | 0.00 | 0.10 | 0.08 | 74 | 1013.8 |
| 20260904181506 | 84 | 77 | 0.0 | 10.0 | 0.00 | 0.10 | 0.08 | 75 | 1013.9 |
| 20260904181009 | 84 | 321 | 3.0 | 10.0 | 0.00 | 0.10 | 0.08 | 70 | 1013.9 |
| 20260904180504 | 85 | 292 | 2.0 | 8.0 | 0.00 | 0.10 | 0.08 | 70 | 1013.9 |
| 20260904180008 | 85 | 315 | 4.0 | 10.0 | 0.00 | 0.10 | 0.08 | 68 | 1013.8 |
| 20260904175006 | 86 | 321 | 1.0 | 4.0 | 0.00 | 0.10 | 0.08 | 70 | 1013.6 |
| 20260904174506 | 86 | 304 | 0.0 | 6.0 | 0.00 | 0.10 | 0.08 | 71 | 1013.8 |
| 20260904174006 | 85 | 199 | 3.0 | 8.0 | 0.00 | 0.10 | 0.08 | 71 | 1013.8 |
| 20260904173504 | 85 | 336 | 4.0 | 9.0 | 0.00 | 0.10 | 0.08 | 68 | 1014.0 |
| 20260904173007 | 85 | 327 | 4.0 | 9.0 | 0.00 | 0.10 | 0.08 | 70 | 1014.1 |
| 20260904172005 | 85 | 294 | 4.0 | 9.0 | 0.00 | 0.10 | 0.08 | 70 | 1014.1 |
| 20260904171506 | 85 | 341 | 3.0 | 9.0 | 0.00 | 0.10 | 0.08 | 70 | 1014.2 |
| 20260904171006 | 85 | 324 | 2.0 | 5.0 | 0.00 | 0.10 | 0.08 | 71 | 1014.1 |
| 20260904170505 | 84 | 259 | 0.0 | 8.0 | 0.00 | 0.10 | 0.08 | 73 | 1014.1 |
| 20260904170010 | 84 | 299 | 3.0 | 8.0 | 0.00 | 0.10 | 0.08 | 72 | 1014.0 |
| 20260904165504 | 84 | 348 | 3.0 | 7.0 | 0.00 | 0.10 | 0.08 | 72 | 1013.9 |
| 20260904164506 | 84 | 308 | 3.0 | 6.0 | 0.00 | 0.10 | 0.08 | 71 | 1014.0 |
| 20260904164006 | 84 | 310 | 0.0 | 6.0 | 0.00 | 0.10 | 0.08 | 70 | 1014.0 |
| 20260904163504 | 84 | 94 | 3.0 | 6.0 | 0.00 | 0.10 | 0.08 | 72 | 1014.0 |
| 20260904163009 | 84 | 333 | 1.0 | 10.0 | 0.00 | 0.10 | 0.08 | 72 | 1014.1 |
| 20260904162504 | 84 | 84 | 3.0 | 10.0 | 0.00 | 0.10 | 0.08 | 71 | 1014.2 |
| 20260904162007 | 85 | 315 | 2.0 | 7.0 | 0.00 | 0.10 | 0.08 | 71 | 1014.2 |
| 20260904161506 | 84 | 304 | 1.0 | 7.0 | 0.00 | 0.10 | 0.08 | 72 | 1014.2 |
| 20260904160011 | 84 | 300 | 3.0 | 8.0 | 0.00 | 0.10 | 0.08 | 75 | 1014.3 |
| 20260904155505 | 83 | 272 | 2.0 | 5.0 | 0.00 | 0.10 | 0.08 | 72 | 1014.3 |
| 20260904155007 | 83 | 316 | 1.0 | 4.0 | 0.00 | 0.10 | 0.08 | 75 | 1014.3 |
| 20260904154505 | 83 | 325 | 1.0 | 8.0 | 0.00 | 0.10 | 0.08 | 72 | 1014.3 |
| 20260904154006 | 83 | 279 | 2.0 | 10.0 | 0.00 | 0.10 | 0.08 | 75 | 1014.2 |
| 20260904153506 | 83 | 326 | 5.0 | 10.0 | 0.00 | 0.10 | 0.08 | 74 | 1014.3 |
| 20260904153006 | 83 | 18 | 0.0 | 4.0 | 0.00 | 0.10 | 0.08 | 76 | 1014.4 |
| 20260904152013 | 82 | 296 | 0.0 | 9.0 | 0.00 | 0.10 | 0.08 | 76 | 1014.3 |
| 20260904151505 | 82 | 333 | 3.0 | 9.0 | 0.00 | 0.10 | 0.08 | 76 | 1014.3 |
| 20260904151006 | 82 | 339 | 0.0 | 8.0 | 0.00 | 0.10 | 0.08 | 76 | 1014.3 |
| 20260904150508 | 82 | 265 | 2.0 | 7.0 | 0.00 | 0.10 | 0.08 | 75 | 1014.3 |
| 20260904150007 | 82 | 37 | 1.0 | 11.0 | 0.00 | 0.10 | 0.08 | 77 | 1014.3 |
| 20260904145504 | 82 | 360 | 3.0 | 11.0 | 0.00 | 0.10 | 0.08 | 77 | 1014.3 |
| 20260904145006 | 82 | 305 | 4.0 | 8.0 | 0.00 | 0.10 | 0.08 | 77 | 1014.2 |
| 20260904144504 | 82 | 335 | 3.0 | 8.0 | 0.00 | 0.10 | 0.08 | 78 | 1014.2 |
| 20260904144005 | 81 | 300 | 3.0 | 8.0 | 0.00 | 0.10 | 0.08 | 78 | 1014.1 |
| 20260904143506 | 81 | 301 | 4.0 | 5.0 | 0.00 | 0.10 | 0.08 | 78 | 1014.2 |
| 20260904142007 | 80 | 305 | 1.0 | 5.0 | 0.00 | 0.10 | 0.08 | 80 | 1014.1 |
| 20260904141505 | 80 | 273 | 2.0 | 5.0 | 0.00 | 0.10 | 0.08 | 82 | 1013.9 |
| 20260904141005 | 79 | 321 | 0.0 | 2.0 | 0.00 | 0.10 | 0.08 | 81 | 1013.9 |
| 20260904140506 | 79 | 321 | 0.0 | 3.0 | 0.00 | 0.10 | 0.08 | 81 | 1013.9 |
| 20260904140007 | 79 | 321 | 0.0 | 3.0 | 0.00 | 0.10 | 0.08 | 82 | 1013.9 |
| 20260904134504 | 78 | 294 | 2.0 | 5.0 | 0.00 | 0.10 | 0.08 | 83 | 1013.8 |
| 20260904134005 | 78 | 280 | 1.0 | 9.0 | 0.00 | 0.10 | 0.08 | 84 | 1013.9 |
| 20260904133506 | 77 | 318 | 2.0 | 13.0 | 0.00 | 0.10 | 0.08 | 85 | 1014.0 |
| 20260904133006 | 77 | 303 | 5.0 | 13.0 | 0.00 | 0.10 | 0.08 | 85 | 1014.0 |
| 20260904131504 | 76 | 279 | 1.0 | 12.0 | 0.00 | 0.10 | 0.08 | 88 | 1013.9 |
| 20260904131006 | 75 | 318 | 3.0 | 8.0 | 0.00 | 0.10 | 0.08 | 89 | 1014.0 |
| 20260904130506 | 75 | 326 | 2.0 | 8.0 | 0.00 | 0.10 | 0.08 | 90 | 1014.0 |
| 20260904130007 | 75 | 316 | 3.0 | 8.0 | 0.00 | 0.10 | 0.08 | 91 | 1014.1 |
| 20260904125504 | 74 | 294 | 1.0 | 9.0 | 0.00 | 0.10 | 0.08 | 92 | 1013.9 |
| 20260904125007 | 74 | 286 | 5.0 | 9.0 | 0.00 | 0.10 | 0.08 | 93 | 1014.0 |
| 20260904124505 | 74 | 307 | 1.0 | 6.0 | 0.00 | 0.10 | 0.08 | 93 | 1014.1 |
| 20260904123505 | 73 | 300 | 0.0 | 7.0 | 0.00 | 0.10 | 0.08 | 94 | 1014.2 |
| 20260904122005 | 72 | 5 | 2.0 | 5.0 | 0.00 | 0.10 | 0.08 | 95 | 1014.1 |
| 20260904121507 | 72 | 295 | 2.0 | 7.0 | 0.00 | 0.10 | 0.08 | 95 | 1014.1 |
| 20260904120505 | 72 | 252 | 3.0 | 8.0 | 0.00 | 0.10 | 0.08 | 95 | 1014.1 |
| 20260904120009 | 71 | 301 | 2.0 | 4.0 | 0.00 | 0.10 | 0.08 | 95 | 1014.1 |
| 20260904115505 | 71 | 301 | 2.0 | 5.0 | 0.00 | 0.10 | 0.08 | 96 | 1014.1 |
| 20260904115005 | 71 | 287 | 2.0 | 5.0 | 0.00 | 0.10 | 0.08 | 96 | 1014.1 |
| 20260904114506 | 71 | 294 | 2.0 | 4.0 | 0.00 | 0.10 | 0.08 | 96 | 1014.0 |
| 20260904114010 | 71 | 332 | 1.0 | 4.0 | 0.00 | 0.10 | 0.08 | 96 | 1014.0 |
| 20260904113505 | 71 | 302 | 1.0 | 3.0 | 0.00 | 0.10 | 0.08 | 96 | 1013.9 |
| 20260904112507 | 71 | 290 | 1.0 | 4.0 | 0.00 | 0.10 | 0.08 | 96 | 1013.9 |
| 20260904111504 | 71 | 291 | 1.0 | 2.0 | 0.00 | 0.10 | 0.08 | 96 | 1013.6 |
| 20260904111006 | 70 | 291 | 0.0 | 2.0 | 0.00 | 0.10 | 0.08 | 96 | 1013.6 |
| 20260904110505 | 70 | 291 | 1.0 | 3.0 | 0.00 | 0.10 | 0.08 | 96 | 1013.5 |
| 20260904105505 | 70 | 280 | 2.0 | 4.0 | 0.00 | 0.11 | 0.08 | 96 | 1013.4 |
| 20260904104505 | 70 | 305 | 1.0 | 4.0 | 0.00 | 0.11 | 0.08 | 96 | 1013.2 |
| 20260904104006 | 70 | 302 | 2.0 | 4.0 | 0.00 | 0.11 | 0.08 | 96 | 1013.2 |
| 20260904103505 | 71 | 346 | 0.0 | 5.0 | 0.00 | 0.11 | 0.08 | 96 | 1013.1 |
| 20260904103006 | 71 | 304 | 1.0 | 3.0 | 0.00 | 0.11 | 0.08 | 96 | 1013.0 |
| 20260904102505 | 71 | 303 | 1.0 | 3.0 | 0.00 | 0.11 | 0.08 | 96 | 1013.0 |